LEBLLXGB

Guest
Details From LEBL - Barcelona - El Prat
To LXGB - Gibraltar
Flight Number -
Tags decoded
Created
Modified
Stats Distance 472 nm / 874 km
Max Altitude 0 ft / 0 m
Waypoints 3
Social Downloads 0
Likes 0
Share VATSIM

Download

Looking for another format? Having issues loading an existing format? Contact us
Advertisement - Login to hide

Notes

Requested: LEBL PIMOS LXGB

Route

LEBL PIMOS LXGB

ID Type Via Altitude Latitude Longitude Leg Dist Tot Dist Heading (true) Name
O LEBL APT - 0 ft / 0 m 41.29511˚ 2.08803˚ - 0 nm - Barcelona - El Prat
PIMOS FIX - 0 ft / 0 m 36.15027˚ -4.89346˚ 449 nm 449 nm 229° / 224° -
O LXGB APT - 0 ft / 0 m 36.15121˚ -5.34966˚ 22 nm 471 nm 270° / 270° Gibraltar

Altitude Profile

Advertisement - Login to hide

Weather


0- 5 10 15 20 25 30 35+ Temperature / ° C

Clouds and Precipitation
Forecast for 2018-05-25 18:00 UTC. Updated 10 minutes ago

Ground ~20,000 ft ~40,000 ft Winds

LEBL

Details ICAO LEBL (BCN)
Name Barcelona - El Prat
Region Spain
Timezone Europe/Madrid (UTC+2.0)
Stats Elevation 14 ft / 4 m (AMSL)
Location 41.295108° 2.088030°
Runways 3
Magnetic Variation 0.870° E

METAR

LEBL 251730Z 08016KT CAVOK 22/14 Q1013 NOSIG

Decode

TAF

TAF LEBL 251100Z 2512/2612 07015KT 9999 FEW040 TX24/2512Z TN19/2606Z TEMPO 2512/2520 04015G30KT BECMG 2518/2520 06008KT TEMPO 2609/2612 06015G25KT

Decode

Departure Runways

ID Width Length Bearing (true) Bearing (mag) Surface Threshold Offset Overrun Length
02 148 ft / 45 m 8,343 ft / 2,543 m 18.93° 18.06° Asphalt 0 ft / 0 m 348 ft / 106 m
07L 197 ft / 60 m 10,983 ft / 3,348 m 65.49° 64.62° Asphalt 1,411 ft / 430 m 1,161 ft / 354 m
07R 197 ft / 60 m 8,718 ft / 2,657 m 65.49° 64.62° Asphalt 0 ft / 0 m 207 ft / 63 m
20 148 ft / 45 m 8,343 ft / 2,543 m 198.93° 198.06° Asphalt 0 ft / 0 m 200 ft / 61 m
25L 197 ft / 60 m 8,718 ft / 2,657 m 245.51° 244.64° Asphalt 0 ft / 0 m 203 ft / 62 m
25R 197 ft / 60 m 10,983 ft / 3,348 m 245.51° 244.64° Asphalt 0 ft / 0 m 522 ft / 159 m

LXGB

Details ICAO LXGB (GIB)
Name Gibraltar
Region Gibralter
Timezone Europe/Gibraltar (UTC+2.0)
Stats Elevation 15 ft / 5 m (AMSL)
Location 36.151209° -5.349664°
Runways 1
Magnetic Variation 1.072° W

METAR

LXGB 251650Z 27009KT 9999 FEW040 22/11 Q1013 NOSIG

Decode

TAF

Not found

Destination Runways

ID Width Length Bearing (true) Bearing (mag) Surface Threshold Offset Overrun Length
27 151 ft / 46 m 5,992 ft / 1,826 m 267.56° 268.63° Asphalt 367 ft / 112 m 89 ft / 27 m
9 151 ft / 46 m 5,992 ft / 1,826 m 87.54° 88.61° Asphalt 299 ft / 91 m 52 ft / 16 m

Popular Alternatives